Location: Antichan
(42.9728°N, 0.6667°E)
Time: 14:15:46
(UTC+00:00)

Cosmos 1190 Rocket - Pass Details

Date: 15 August 2020
Orbit: 756 x 780 km, 74.1° (Epoch: 25 September)

Event Time Altitude Azimuth Distance (km) Brightness Sun altitude
Rises 19:18:28 0° 191° (S) 3,229 7.1 -4.1°
Reaches altitude 10° 19:20:50 10° 188° (S) 2,310 6.3 -4.5°
Maximum altitude 19:26:02 68° 107° (ESE) 838 4.0 -5.4°
Drops below altitude 10° 19:31:18 10° 25° (NNE) 2,338 6.5 -6.3°
Sets 19:33:43 0° 23° (NNE) 3,272 7.3 -6.7°
